Weather in Staryy Shagirt

Russia / Perm Krai     56°27′11″N   55°11′59″E
temp.,
°C
wind,
m/s
gust,
m/s
humid.,
%
clouds,
%
prec.,
mm/h
press.,
hPa
HPBL,
m
28 february, sun
sun2823:00−13e71193100 1.4 1004345
02:00−14e5994100 0.3 1003306
05:00−14ene5109498 0.5 1003294
08:00−14ene599399 0.1 1003310
11:00−12ne599298 0.3 1004407
14:00−10ne589198 0.1 1005512
17:00−9ne589099 0.3 1006541
20:00−11nne5993100 0.2 1008368
1 march, mon
mon123:00−13ne489395 0.3 1010307
02:00−15nne479478 0.0 1012184
05:00−16nne479480 0.1 1014243
08:00−18nne359578 0.1 101589
11:00−16nne359276 0.1 1017306
14:00−12nne238592 0.0 1017485
17:00−11nnw338896 0.1 1018574
20:00−16nw2294100 0.0 101820
2 march, tue
tue223:00−19wsw229984 0.1 101820
02:00−21sw3410083 0.0 101645
05:00−22s4810091 0.1 1014150
08:00−21s51197100 0.0 1011260
11:00−18s71196100 0.1 1009333
14:00−14s71294100 0.4 1006462
17:00−12s71294100 0.9 1004588
20:00−11s61295100 0.5 1002547
3 march, wed
wed323:00−11s61294100 1.1 1001475
02:00−10sse51195100 0.7 999433
05:00−9se4995100 1.6 998363
08:00−9ese3596100 0.9 997178
11:00−7ne2293100 1.4 997177
14:00−5nnw4590100 0.1 998430
17:00−5nw4691100 0.1 998525
20:00−7wnw369498 0.1 1000104
4 march, thu
thu423:00−9nw499387 0.2 1002171
02:00−10nw489570 0.0 1003146
05:00−13nw449649 0.0 100476
08:00−12wnw499592 0.1 1006233
11:00−11wnw469381 0.2 1006275
14:00−8wsw579092 0.0 1006612
17:00−8sw699296 0.1 1006587
20:00−8ssw71394100 0.2 1003552